Location: Ciechanow
(52.8812°N, 20.6195°E)
Time: 13:36:12
(UTC+01:00)

ISS - Pass Details

Date: 30 January 2019
Orbit: 403 x 411 km, 51.6° (Epoch: 23 February)

Event Time Altitude Azimuth Distance (km) Brightness Sun altitude
Rises 19:00:20 0° 271° (W) 2,339 1.5 -24.4°
Reaches altitude 10° 19:02:25 10° 269° (W) 1,479 0.1 -24.7°
Enters shadow 19:04:21 32° 261° (W) 732 -2.0 -25.0°
